This demonstration page uses our WeatherBlox Daily Observations layout. Learn more.

Left ArrowRight Arrow

38.89511, -77.03637

Hourly Observations for April 24, 2021

Temp ( °F °C ) Dew Point ( °F °C ) Humidity (%) Winds ( mph kmh ) Pressure ( in mb ) Visibility ( mi km ) Precip ( " mm )
12:52 am 00:52 Clear 51 10.6 36 2.2 56 56 S 7 11 30.09 1019 10 16 0.00 0.00
1:52 am 01:52 Clear 51 10.6 32 0 48 48 S 3 6 30.09 1019 10 16 0.00 0.00
2:52 am 02:52 Mostly Clear 49 9.4 33 0.6 55 55 WSW 3 6 30.06 1018 10 16 0.00 0.00
3:52 am 03:52 Mostly Clear 46 7.8 34 1.1 63 63 SSW 5 7 30.07 1018 10 16 0.00 0.00
4:52 am 04:52 Partly Cloudy 45 7.2 33 0.6 63 63 SW 5 7 30.07 1018 10 16 0.00 0.00
5:52 am 05:52 Mostly Clear 45 7.2 34 1.1 66 66 SW 5 7 30.08 1019 10 16 0.00 0.00
6:52 am 06:52 Mostly Sunny 43 6.1 35 1.7 74 74 WSW 5 7 30.09 1019 10 16 0.00 0.00
7:52 am 07:52 Mostly Sunny 48 8.9 36 2.2 63 63 SSW 5 7 30.12 1020 10 16 0.00 0.00
8:52 am 08:52 Mostly Cloudy 52 11.1 39 3.9 61 61 SSE 5 7 30.12 1020 10 16 0.00 0.00
9:52 am 09:52 Mostly Cloudy 57 13.9 39 3.9 51 51 SSE 5 7 30.11 1020 10 16 0.00 0.00
10:52 am 10:52 Cloudy 61 16.1 34 1.1 36 36 SSE 3 6 30.09 1019 10 16 0.00 0.00
11:52 am 11:52 Cloudy 63 17.2 33 0.6 33 33 S 8 13 30.07 1018 10 16 0.00 0.00
12:52 pm 12:52 Cloudy 64 17.8 35 1.7 34 34 S 9 15 30.05 1018 10 16 0.00 0.00
1:52 pm 13:52 Cloudy 65 18.3 35 1.7 33 33 S 10 17 30.02 1017 10 16 0.00 0.00
2:52 pm 14:52 Cloudy 63 17.2 34 1.1 34 34 S 10 17 30.00 1016 10 16 0.00 0.00
3:52 pm 15:52 Cloudy 63 17.2 36 2.2 37 37 S 9 15 29.98 1015 10 16 0.00 0.00
4:52 pm 16:52 Cloudy 61 16.1 41 5 48 48 S 9 15 29.96 1015 10 16 0.00 0.00
5:52 pm 17:52 Cloudy 62 16.7 40 4.4 44 44 S 9 15 29.95 1014 10 16 0.00 0.00
6:52 pm 18:52 Cloudy with Light Rain 56 13.3 45 7.2 67 67 SW 14 22 29.94 1014 8 13 0.00 0.00
7:52 pm 19:52 Cloudy with Light Rain 53 11.7 47 8.3 80 80 SSE 5 7 29.90 1013 8 13 0.05 1.27
8:52 pm 20:52 Cloudy with Light Rain 52 11.1 47 8.3 83 83 SE 3 6 29.88 1012 8 13 0.02 0.51
9:52 pm 21:52 Cloudy with Light Rain 52 11.1 48 8.9 86 86 E 6 9 29.85 1011 7 11 0.06 1.52
10:39 pm 22:39 Cloudy with Rain 52 11.1 48 8.9 86 86 ESE 3 6 29.85 1011 4 6 0.10 2.54
10:52 pm 22:52 Cloudy with Light Rain 52 11.1 48 8.9 86 86 SE 5 7 29.85 1011 5 8 0.12 3.05
10:59 pm 22:59 Cloudy with Light Rain 51 10.6 48 8.9 89 89 ESE 3 6 29.84 1011 4 6 0.02 0.51
11:09 pm 23:09 Cloudy with Light Rain 51 10.6 48 8.9 89 89 ENE 3 6 29.83 1010 4 6 0.04 1.02
11:33 pm 23:33 Cloudy with Rain 51 10.6 48 8.9 89 89 NE 5 7 29.82 1010 4 6 0.11 2.79
11:52 pm 23:52 Cloudy with Rain 51 10.6 48 8.9 89 89 ENE 5 7 29.81 1010 3 5 0.18 4.57

Powered by AerisWeather